Location: Camaret
(48.2753°N, 4.5961°W)
Time: 04:36:22
(UTC+00:00)

CZ-2C R/B - Pass Details

Date: 29 October 2020
Orbit: 703 x 909 km, 98.1° (Epoch: 01 December)

Event Time Altitude Azimuth Distance (km) Brightness Sun altitude
Rises 19:15:55 0° 175° (S) 3,520 6.3 -22.5°
Reaches altitude 10° 19:18:23 10° 179° (S) 2,574 5.6 -22.9°
Maximum altitude 19:24:05 61° 259° (W) 1,000 3.8 -23.9°
Drops below altitude 10° 19:29:38 10° 340° (NNW) 2,501 6.0 -24.8°
Sets 19:32:00 0° 344° (NNW) 3,412 6.7 -25.2°
